Regional Weather Roundup
Issued by NWS

Home | Current Version | Previous Version | Graphics & Text | Print | Product List | Glossary On
Versions: 1 2 3 4 5 6 7 8 9 10 11 12 13 14 15 16 17 18 19 20 21 22 23 24 25 26 27 28 29 30 31 32 33 34 35 36 37 38 39 40 41 42 43 44 45 46 47 48 49 50
000
ASUS43 KOAX 310002
RWRNE

WEATHER ROUNDUP FOR NEBRASKA
NATIONAL WEATHER SERVICE OMAHA NE
700 PM CDT THU OCT 30 2014

NOTES: SATELLITE DATA IS BEING USED TO AUGMENT CLOUD COVER ABOVE
       12000 FEET.
       "FAIR" INDICATES FEW OR NO CLOUDS BELOW 12,000 FEET WITH NO
       SIGNIFICANT WEATHER AND/OR OBSTRUCTIONS TO VISIBILITY.

  * THESE STATIONS DO NOT REPORT WEATHER SUCH AS RAIN...SNOW OR FOG.

NEZ001>004-019>022-054>056-310100-
NEBRASKA PANHANDLE

CITY           SKY/WX    TMP DP  RH WIND       PRES   REMARKS
SCOTTSBLUFF    CLEAR     51  31  46 NE9       30.33R
6HR MIN TEMP:  51; 6HR MAX TEMP:  65;

ALLIANCE       CLEAR     48  33  56 NE10      30.34R
6HR MIN TEMP:  48; 6HR MAX TEMP:  61;

CHADRON        CLEAR     48  33  56 NE10      30.37R
6HR MIN TEMP:  48; 6HR MAX TEMP:  62;

KIMBALL        CLEAR     51  28  42 CALM      30.34R
SIDNEY         CLEAR     50  30  46 N3        30.35R
6HR MIN TEMP:  50; 6HR MAX TEMP:  62;

$$

NEZ057>060-069>072-079>082-310100-
SOUTHWEST NEBRASKA

CITY           SKY/WX    TMP DP  RH WIND       PRES   REMARKS
NORTH PLATTE   CLEAR     52  31  44 N10       30.33R
6HR MIN TEMP:  52; 6HR MAX TEMP:  65;

IMPERIAL       CLEAR     55  28  35 NE10      30.32R
6HR MIN TEMP:  55; 6HR MAX TEMP:  65;

LEXINGTON      CLEAR     53  33  47 N7        30.31R
MCCOOK         CLEAR     56  30  37 N12       30.30R
6HR MIN TEMP:  56; 6HR MAX TEMP:  69;

OGALLALA       CLEAR     56  34  43 NE9       30.32R
$$

NEZ005>010-023>029-035>040-094-310100-
NORTH CENTRAL NEBRASKA

CITY           SKY/WX    TMP DP  RH WIND       PRES   REMARKS
VALENTINE      CLEAR     43  31  62 N12       30.39R
6HR MIN TEMP:  43; 6HR MAX TEMP:  56;

AINSWORTH      CLEAR     41  32  69 N10       30.38R
BROKEN BOW     CLEAR     49  33  54 N17       30.32R
6HR MIN TEMP:  49; 6HR MAX TEMP:  64;

O`NEILL        CLOUDY    43  36  76 N14G22    30.37R
ORD            CLEAR     46  34  62 N16G23    30.32R
6HR MIN TEMP:  46; 6HR MAX TEMP:  60;

THEDFORD       CLEAR     47  33  57 N12       30.37R
$$

NEZ041-046>049-061>064-073>077-083>087-310100-
SOUTH CENTRAL NEBRASKA

CITY           SKY/WX    TMP DP  RH WIND       PRES   REMARKS
GRAND ISLAND   CLEAR     51  35  54 N16       30.28R
6HR MIN TEMP:  51; 6HR MAX TEMP:  64;

AURORA         CLEAR     52  33  49 N20G25    30.27R
HASTINGS       CLEAR     53  34  48 N16G25    30.25R
6HR MIN TEMP:  53; 6HR MAX TEMP:  64;

HEBRON         CLEAR     56  34  42 N14       30.21R
HOLDREGE       CLEAR     54  32  43 N17       30.27R
KEARNEY *      CLEAR     52  32  46 NW18      30.29R
YORK           CLEAR     50  37  62 N14       30.25R
$$

NEZ011>018-030>034-042>045-310100-
NORTHEAST NEBRASKA

CITY           SKY/WX    TMP DP  RH WIND       PRES   REMARKS
NORFOLK        CLOUDY    45  38  76 N18G25    30.30R
6HR MIN TEMP:  45; 6HR MAX TEMP:  59;

ALBION         CLOUDY    46  35  66 N18G24    30.31R
BLAIR          CLEAR     51  39  63 NW21G28   30.20R
FREMONT        CLEAR     48  38  67 NW20      30.25R
TEKAMAH        CLEAR     50  39  66 NW17G28   30.23R
6HR MIN TEMP:  50; 6HR MAX TEMP:  63;

WAYNE          CLOUDY    45  40  83 NW22G29   30.29R
$$

NEZ050>053-065>068-078-088>093-310100-
SOUTHEAST NEBRASKA

CITY           SKY/WX    TMP DP  RH WIND       PRES   REMARKS
LINCOLN        CLEAR     54  37  52 N25       30.23R
6HR MIN TEMP:  54; 6HR MAX TEMP:  64;

OMAHA EPPLEY   PTCLDY    53  40  61 NW20G26   30.19R
6HR MIN TEMP:  53; 6HR MAX TEMP:  63;

BEATRICE       CLEAR     53  38  55 N14       30.19R
FALLS CITY     CLEAR     57  39  51 NW13      30.13R
6HR MIN TEMP:  57; 6HR MAX TEMP:  66;

NEBRASKA CITY  CLEAR     54  34  47 N14G24    30.16R
PLATTSMOUTH    PTCLDY    53  37  55 NW15G23   30.17R
$$

NEZ044-045-051>053-067-310100-
OMAHA AREA

CITY           SKY/WX    TMP DP  RH WIND       PRES   REMARKS
OMAHA EPPLEY   PTCLDY    53  40  61 NW20G26   30.19R
6HR MIN TEMP:  53; 6HR MAX TEMP:  63;

BLAIR          CLEAR     51  39  63 NW21G28   30.20R
FREMONT        CLEAR     48  38  67 NW20      30.25R
MILLARD        CLEAR     54  39  58 NW16G28   30.19R
PLATTSMOUTH    PTCLDY    53  37  55 NW15G23   30.17R
WAHOO          FAIR      48  36  61 NW16G29   30.23R
$$



USA.gov is the U.S. government's official web portal to all federal, state and local government web resources and services.